User: anonymous   Login
Location: Bushey
(51.6333°N, 0.3667°W)
Time: 15:30:29
(UTC+00:00)
Language:

Terra - Orbit

View from above orbital plane
View from above orbital plane
View from above satellite
View from above satellite

Ground track
Ground track

The orbit data is extracted from the following two-line orbital elements,

1 25994U 99068A   21132.16892225  .00000063  00000-0  24057-4 0  9996
2 25994  98.1767 207.2543 0001445  98.6909 282.8402 14.57129834138188
Epoch (UTC): 12 May 2021 04:03:14
Eccentricity: 0.0001445
inclination: 98.1767°
perigee height: 701 km
apogee height: 703 km
right ascension of ascending node: 207.2543°
argument of perigee: 98.6909°
revolutions per day: 14.57129834
mean anomaly at epoch: 282.8402°
orbit number at epoch: 13818

The dashed part of the orbit path shows where the satellite is in the earth's shadow,  

DLR